Volver al catálogo

COSMOS 586

ActivoMilitarPO
NORAD 6828·PAYLOAD·🇷🇺 Russia

Lanzado Sep 14, 1973 desde Plesetsk Cosmodrome

Loading…

Próximos Pases (próximas 24 horas)

TLE

ActualizadoSource: Space-Track

Época: Sep 14, 2026, 13:26 UTC

1 06828U 73065A   26257.55982896  .00000033  00000-0  18273-4 0  9990
2 06828  82.9370  96.9275 0026628 314.0439  63.2678 13.75382914659185

Sigue COSMOS 586 en tiempo real con AllMySat

Download on the App Store